FW2148 Weather Reports


Display with metric or nautical units.
time (UTC)temp
F
wind
direction
speed
MPH
gust
MPH
rain 1hr
in
rain 24hr
in
rain mn
in
humidity
%
barometer
mb
20260510070036 59 117 0.0 0.0 0.00 0.00 0.00 81 977.5
20260510064528 59 318 0.0 1.0 0.00 0.00 0.00 82 977.7
20260510063026 59 318 0.0 1.0 0.00 0.00 0.00 82 977.9
20260510061524 60 318 0.0 1.0 0.00 0.00 0.00 81 977.9
20260510060021 60 331 0.0 1.0 0.00 0.00 0.00 80 977.9
20260510054518 61 134 0.0 3.0 0.00 0.00 0.00 79 977.9
20260510053013 62 306 0.0 0.0 0.00 0.00 0.00 77 977.8
20260510051513 63 306 0.0 0.0 0.00 0.00 0.00 73 977.7
20260510050010 63 306 0.0 0.0 0.00 0.00 0.00 71 977.6
20260510044514 63 306 0.0 0.0 0.00 0.00 0.00 70 977.5
20260510043008 64 302 0.0 0.0 0.00 0.00 0.00 71 977.5
20260510041506 64 283 0.0 0.0 0.00 0.00 0.00 71 977.3
20260510040004 64 162 0.0 0.0 0.00 0.00 0.00 70 977.1
20260510034504 65 162 0.0 0.0 0.00 0.00 0.00 70 977.0
20260510033002 66 162 0.0 0.0 0.00 0.00 0.00 68 976.7
20260510031502 66 162 0.0 0.0 0.00 0.00 0.00 67 976.8
20260510030104 67 162 0.0 0.0 0.00 0.00 0.00 67 976.6
20260510024558 67 162 0.0 0.0 0.00 0.00 0.00 67 976.3
20260510023058 68 162 0.0 0.0 0.00 0.00 0.00 65 976.0
20260510021557 70 162 0.0 0.0 0.00 0.00 0.00 61 975.7
20260510020056 72 162 0.0 2.0 0.00 0.00 0.00 58 975.4
20260510014557 75 162 0.0 1.0 0.00 0.00 0.00 50 975.1
20260510013055 75 162 0.0 3.0 0.00 0.00 0.00 50 974.9
20260510011600 76 121 1.0 3.0 0.00 0.00 0.00 49 974.8
20260510010059 76 238 1.0 4.0 0.00 0.00 0.00 46 974.7
20260510004553 77 239 2.0 4.0 0.00 0.00 0.00 45 974.5
20260510003052 79 224 2.0 5.0 0.00 0.00 0.00 42 974.4
20260510001551 80 238 2.0 4.0 0.00 0.00 0.00 38 974.3
20260510000104 81 250 0.0 3.0 0.00 0.00 0.00 36 974.3
20260509234558 82 275 0.0 6.0 0.00 0.00 0.00 37 974.4
20260509233051 82 283 2.0 5.0 0.00 0.00 0.00 37 974.4
20260509231549 82 217 2.0 8.0 0.00 0.00 0.00 36 974.4
20260509230049 83 240 1.0 7.0 0.00 0.00 0.00 36 974.3
20260509224548 82 228 3.0 7.0 0.00 0.00 0.00 37 974.3
20260509223054 83 221 3.0 6.0 0.00 0.00 0.00 36 974.3
20260509221548 83 271 2.0 11.0 0.00 0.00 0.00 38 974.3
20260509220045 81 152 2.0 9.0 0.00 0.00 0.00 38 974.3
20260509214544 82 237 3.0 10.0 0.00 0.00 0.00 37 974.4
20260509213043 82 100 0.0 7.0 0.00 0.00 0.00 39 974.4
20260509211642 80 130 3.0 6.0 0.00 0.00 0.00 40 974.5
20260509210049 81 208 2.0 8.0 0.00 0.00 0.00 39 974.5
20260509204549 82 167 6.0 12.0 0.00 0.00 0.00 37 974.6
20260509203040 82 159 4.0 11.0 0.00 0.00 0.00 38 974.6
20260509201540 82 228 6.0 9.0 0.00 0.00 0.00 37 974.9
20260509200052 84 261 4.0 9.0 0.00 0.00 0.00 35 975.1
20260509194538 82 288 2.0 10.0 0.00 0.00 0.00 37 975.2
20260509193034 81 144 4.0 10.0 0.00 0.00 0.00 38 975.2
20260509191533 81 188 6.0 11.0 0.00 0.00 0.00 36 975.4
20260509190034 81 252 4.0 10.0 0.00 0.00 0.00 37 975.4
20260509184543 81 162 2.0 10.0 0.00 0.00 0.00 36 975.4
20260509183032 81 178 5.0 11.0 0.00 0.00 0.00 34 975.5
20260509181529 80 212 2.0 8.0 0.00 0.00 0.00 38 975.6
20260509180027 81 277 5.0 9.0 0.00 0.00 0.00 35 975.6
20260509174528 80 238 2.0 8.0 0.00 0.00 0.00 40 975.7
20260509173020 79 292 2.0 8.0 0.00 0.00 0.00 46 975.9
20260509171519 79 248 1.0 7.0 0.00 0.00 0.00 46 976.0
20260509170016 77 309 2.0 8.0 0.00 0.00 0.00 52 976.1
20260509164511 75 226 1.0 8.0 0.00 0.00 0.00 57 976.2
20260509163013 75 218 1.0 7.0 0.00 0.00 0.00 60 976.2
20260509161505 73 217 2.0 6.0 0.00 0.00 0.00 64 976.2
20260509160004 72 244 4.0 8.0 0.00 0.00 0.00 65 976.2
20260509154507 72 360 1.0 7.0 0.00 0.00 0.00 67 976.2
20260509153100 71 261 3.0 8.0 0.00 0.00 0.00 67 976.1
20260509151603 69 313 1.0 5.0 0.00 0.00 0.00 70 976.1
20260509150056 68 349 2.0 8.0 0.00 0.00 0.00 72 976.1
20260509144605 67 251 2.0 4.0 0.00 0.00 0.00 75 976.2
20260509143111 66 231 1.0 4.0 0.00 0.00 0.00 76 976.2
20260509141545 65 238 2.0 5.0 0.00 0.00 0.00 79 976.1
20260509140045 64 302 1.0 4.0 0.00 0.00 0.00 80 976.0
20260509134601 62 289 0.0 4.0 0.00 0.00 0.00 83 976.0
20260509133144 60 286 1.0 4.0 0.00 0.00 0.00 85 976.0
20260509131540 59 242 2.0 5.0 0.00 0.00 0.00 86 975.8
20260509130052 58 248 1.0 3.0 0.00 0.00 0.00 89 975.6
20260509124538 57 223 2.0 5.0 0.00 0.00 0.00 90 975.6
20260509123045 56 242 2.0 6.0 0.00 0.00 0.00 91 975.6
20260509121544 55 238 0.0 2.0 0.00 0.00 0.00 94 975.4
20260509120034 53 255 0.0 1.0 0.00 0.00 0.00 92 975.2
20260509114537 53 255 0.0 0.0 0.00 0.00 0.00 93 975.2
20260509113037 53 255 0.0 0.0 0.00 0.00 0.00 91 974.9
20260509111529 54 255 0.0 0.0 0.00 0.00 0.00 91 974.6
20260509110032 54 255 0.0 0.0 0.00 0.00 0.00 89 974.5
20260509104537 55 255 0.0 0.0 0.00 0.00 0.00 88 974.5
20260509103022 56 255 0.0 0.0 0.00 0.00 0.00 87 974.4
20260509101527 56 265 0.0 3.0 0.00 0.00 0.00 87 974.5
20260509100019 56 274 0.0 1.0 0.00 0.00 0.00 86 974.5
20260509094527 57 274 0.0 1.0 0.00 0.00 0.00 84 974.7
20260509093014 58 283 0.0 5.0 0.00 0.00 0.00 83 974.7
20260509091517 58 256 1.0 6.0 0.00 0.00 0.00 82 974.6
20260509090013 58 256 1.0 5.0 0.00 0.00 0.00 82 974.7
20260509084510 58 283 1.0 4.0 0.00 0.00 0.00 82 974.9
20260509083012 58 255 1.0 2.0 0.00 0.00 0.00 82 975.0
20260509081507 59 263 0.0 1.0 0.00 0.00 0.00 81 974.8
20260509080007 59 279 1.0 4.0 0.00 0.00 0.00 81 974.8
20260509074506 59 236 1.0 4.0 0.00 0.00 0.00 81 974.7
20260509073004 60 279 0.0 2.0 0.00 0.00 0.00 81 974.6
20260509071602 60 258 1.0 3.0 0.00 0.00 0.00 79 974.7